• In Moldova, Republic
  • List of Countries
  • For 7 days
  • Water Temperature
  • Satellite Maps
  • Weather Map
  • Weather Widgets
  • user-avatar
    Login

    Hourly Weather Wlora

    Today, 29 April, Saturday

    Time Temperature Precipitation Wind Pressure Humidity
    00:00 +17°C° 0.1 mm 6 mps 759 mmHg 47%
    01:00 +17°C° 0 mm 6 mps 759 mmHg 49%
    02:00 +17°C° 0.1 mm 6 mps 759 mmHg 47%
    03:00 +17°C° 0.1 mm 6 mps 758 mmHg 45%
    04:00 +19°C° 0.1 mm 6 mps 758 mmHg 43%
    05:00 +19°C° 0 mm 6 mps 758 mmHg 43%
    06:00 +20°C° 0 mm 6 mps 758 mmHg 43%
    07:00 +21°C° 0 mm 6 mps 758 mmHg 41%
    08:00 +22°C° 0 mm 5 mps 758 mmHg 37%
    09:00 +25°C° 0 mm 5 mps 758 mmHg 34%
    10:00 +26°C° 0 mm 4 mps 758 mmHg 31%
    11:00 +26°C° 0 mm 4 mps 758 mmHg 32%
    12:00 +26°C° 0 mm 4 mps 758 mmHg 33%
    13:00 +25°C° 0 mm 3 mps 758 mmHg 34%
    14:00 +25°C° 0 mm 4 mps 758 mmHg 38%
    15:00 +23°C° 0 mm 5 mps 757 mmHg 42%
    16:00 +23°C° 0 mm 5 mps 757 mmHg 46%
    17:00 +21°C° 0 mm 5 mps 757 mmHg 56%
    18:00 +19°C° 0 mm 6 mps 757 mmHg 65%
    19:00 +15°C° 0 mm 6 mps 757 mmHg 75%
    20:00 +15°C° 0 mm 6 mps 757 mmHg 75%
    21:00 +15°C° 0 mm 6 mps 757 mmHg 76%
    22:00 +14°C° 0 mm 6 mps 757 mmHg 76%
    23:00 +14°C° 0 mm 6 mps 757 mmHg 76%

    Tomorrow, 30 April, Sunday

    Time Temperature Precipitation Wind Pressure Humidity
    00:00 +14°C° 0 mm 7 mps 757 mmHg 75%
    01:00 +14°C° 0 mm 7 mps 757 mmHg 75%
    02:00 +12°C° 0 mm 7 mps 757 mmHg 77%
    03:00 +12°C° 0 mm 7 mps 757 mmHg 78%
    04:00 +12°C° 0 mm 7 mps 757 mmHg 80%
    05:00 +14°C° 0 mm 7 mps 757 mmHg 75%
    06:00 +16°C° 0 mm 7 mps 757 mmHg 69%
    07:00 +18°C° 0 mm 7 mps 757 mmHg 63%
    08:00 +20°C° 0 mm 7 mps 758 mmHg 58%
    09:00 +22°C° 0 mm 7 mps 758 mmHg 53%
    10:00 +23°C° 0 mm 7 mps 758 mmHg 48%
    11:00 +23°C° 0 mm 8 mps 758 mmHg 49%
    12:00 +23°C° 0 mm 8 mps 757 mmHg 49%
    13:00 +23°C° 0 mm 8 mps 757 mmHg 50%
    14:00 +23°C° 0 mm 8 mps 757 mmHg 53%
    15:00 +22°C° 0 mm 8 mps 757 mmHg 55%
    16:00 +21°C° 0 mm 8 mps 757 mmHg 58%
    17:00 +20°C° 0 mm 7 mps 757 mmHg 65%
    18:00 +17°C° 0 mm 7 mps 757 mmHg 73%
    19:00 +16°C° 0 mm 7 mps 757 mmHg 80%
    20:00 +15°C° 0.1 mm 6 mps 758 mmHg 82%
    21:00 +15°C° 0.1 mm 6 mps 758 mmHg 84%
    22:00 +14°C° 0.1 mm 6 mps 758 mmHg 85%
    23:00 +14°C° 0.1 mm 6 mps 758 mmHg 86%

    Day after tomorrow, 1 May, Monday

    Time Temperature Precipitation Wind Pressure Humidity
    00:00 +14°C° 0.1 mm 5 mps 759 mmHg 87%
    01:00 +13°C° 0.1 mm 5 mps 759 mmHg 87%
    02:00 +13°C° 0 mm 5 mps 759 mmHg 88%
    03:00 +13°C° 0 mm 5 mps 759 mmHg 88%
    04:00 +13°C° 0 mm 6 mps 759 mmHg 88%
    05:00 +14°C° 0 mm 6 mps 759 mmHg 83%
    06:00 +16°C° 0 mm 5 mps 759 mmHg 77%
    07:00 +17°C° 0 mm 5 mps 759 mmHg 72%
    08:00 +20°C° 0 mm 5 mps 760 mmHg 65%
    09:00 +22°C° 0 mm 5 mps 760 mmHg 59%
    10:00 +23°C° 0 mm 5 mps 760 mmHg 52%
    11:00 +23°C° 0 mm 5 mps 760 mmHg 54%
    12:00 +23°C° 0 mm 6 mps 760 mmHg 56%
    13:00 +23°C° 0 mm 6 mps 760 mmHg 58%
    14:00 +23°C° 0.1 mm 6 mps 760 mmHg 61%
    15:00 +22°C° 0.1 mm 5 mps 760 mmHg 63%
    16:00 +22°C° 0.1 mm 5 mps 760 mmHg 66%
    17:00 +20°C° 0.1 mm 4 mps 760 mmHg 73%
    18:00 +19°C° 0.1 mm 4 mps 760 mmHg 80%
    19:00 +17°C° 0.1 mm 3 mps 760 mmHg 87%
    20:00 +17°C° 0 mm 3 mps 761 mmHg 88%
    21:00 +16°C° 0 mm 3 mps 761 mmHg 88%
    22:00 +16°C° 0 mm 2 mps 761 mmHg 88%
    23:00 +15°C° 0 mm 2 mps 761 mmHg 88%

    2 May, Tuesday

    Time Temperature Precipitation Wind Pressure Humidity
    00:00 +15°C° 0 mm 2 mps 761 mmHg 88%
    01:00 +15°C° 0 mm 2 mps 761 mmHg 88%
    02:00 +14°C° 0 mm 3 mps 761 mmHg 88%
    03:00 +14°C° 0 mm 3 mps 761 mmHg 88%
    04:00 +13°C° 0 mm 3 mps 761 mmHg 88%
    05:00 +16°C° 0 mm 3 mps 761 mmHg 82%
    06:00 +18°C° 0 mm 3 mps 761 mmHg 75%
    07:00 +20°C° 0 mm 3 mps 761 mmHg 69%
    08:00 +22°C° 0 mm 3 mps 761 mmHg 63%
    09:00 +24°C° 0 mm 3 mps 761 mmHg 57%
    10:00 +26°C° 0 mm 3 mps 761 mmHg 51%
    11:00 +26°C° 0 mm 4 mps 761 mmHg 51%
    12:00 +26°C° 0 mm 4 mps 761 mmHg 50%
    13:00 +26°C° 0 mm 5 mps 761 mmHg 50%
    14:00 +26°C° 0 mm 5 mps 761 mmHg 50%
    15:00 +25°C° 0 mm 5 mps 761 mmHg 50%
    16:00 +25°C° 0 mm 5 mps 761 mmHg 50%
    17:00 +22°C° 0 mm 4 mps 761 mmHg 57%
    18:00 +20°C° 0 mm 4 mps 761 mmHg 63%
    19:00 +18°C° 0 mm 4 mps 761 mmHg 70%
    20:00 +17°C° 0 mm 4 mps 762 mmHg 72%
    21:00 +17°C° 0 mm 3 mps 762 mmHg 75%
    22:00 +16°C° 0 mm 3 mps 762 mmHg 77%
    23:00 +16°C° 0 mm 3 mps 762 mmHg 78%

    3 May, Wednesday

    Time Temperature Precipitation Wind Pressure Humidity
    00:00 +16°C° 0 mm 3 mps 762 mmHg 80%
    01:00 +16°C° 0 mm 3 mps 762 mmHg 81%
    02:00 +14°C° 0 mm 3 mps 762 mmHg 82%
    03:00 +14°C° 0 mm 4 mps 762 mmHg 83%
    04:00 +14°C° 0 mm 4 mps 762 mmHg 83%
    05:00 +17°C° 0 mm 4 mps 762 mmHg 76%
    06:00 +19°C° 0 mm 3 mps 762 mmHg 69%
    07:00 +21°C° 0 mm 3 mps 762 mmHg 62%
    08:00 +22°C° 0 mm 3 mps 762 mmHg 58%
    09:00 +25°C° 0 mm 3 mps 762 mmHg 53%
    10:00 +26°C° 0 mm 4 mps 762 mmHg 49%
    11:00 +26°C° 0 mm 4 mps 762 mmHg 49%
    12:00 +26°C° 0 mm 4 mps 762 mmHg 48%
    13:00 +26°C° 0 mm 4 mps 761 mmHg 48%
    14:00 +26°C° 0 mm 4 mps 761 mmHg 48%
    15:00 +25°C° 0 mm 4 mps 761 mmHg 49%
    16:00 +25°C° 0 mm 3 mps 761 mmHg 49%
    17:00 +22°C° 0 mm 3 mps 761 mmHg 57%
    18:00 +20°C° 0 mm 2 mps 761 mmHg 65%
    19:00 +17°C° 0 mm 2 mps 761 mmHg 73%
    20:00 +17°C° 0 mm 2 mps 761 mmHg 76%
    21:00 +16°C° 0 mm 1 mps 761 mmHg 80%
    22:00 +16°C° 0 mm 1 mps 761 mmHg 83%
    23:00 +15°C° 0 mm 1 mps 761 mmHg 83%

    4 May, Thursday

    Time Temperature Precipitation Wind Pressure Humidity
    00:00 +15°C° 0 mm 1 mps 761 mmHg 84%
    01:00 +15°C° 0 mm 1 mps 761 mmHg 84%
    02:00 +14°C° 0 mm 0 mps 761 mmHg 84%
    03:00 +13°C° 0 mm 0 mps 761 mmHg 84%
    04:00 +13°C° 0 mm 0 mps 761 mmHg 84%
    05:00 +15°C° 0 mm 0 mps 761 mmHg 76%
    06:00 +19°C° 0 mm 1 mps 761 mmHg 68%
    07:00 +21°C° 0 mm 1 mps 761 mmHg 59%
    08:00 +23°C° 0 mm 1 mps 761 mmHg 55%
    09:00 +24°C° 0 mm 2 mps 761 mmHg 50%
    10:00 +25°C° 0 mm 2 mps 761 mmHg 45%
    11:00 +25°C° 0 mm 3 mps 761 mmHg 45%
    12:00 +25°C° 0 mm 3 mps 761 mmHg 46%
    13:00 +25°C° 0 mm 4 mps 761 mmHg 46%
    14:00 +25°C° 0 mm 4 mps 761 mmHg 48%
    15:00 +24°C° 0 mm 3 mps 761 mmHg 51%
    16:00 +22°C° 0 mm 3 mps 760 mmHg 53%
    17:00 +20°C° 0 mm 3 mps 761 mmHg 62%
    18:00 +18°C° 0 mm 3 mps 761 mmHg 71%
    19:00 +16°C° 0 mm 2 mps 761 mmHg 81%
    20:00 +16°C° 0 mm 2 mps 761 mmHg 82%
    21:00 +15°C° 0 mm 2 mps 761 mmHg 83%
    22:00 +15°C° 0 mm 2 mps 761 mmHg 84%
    23:00 +15°C° 0 mm 2 mps 761 mmHg 83%
    Show more